Location: Barrio de Buenos Aires
(28.4500°N, 16.2667°W)
Time: 18:40:27
(UTC+00:00)

Cosmos 2333 Rocket - Pass Details

Date: 24 January 2020
Orbit: 839 x 863 km, 70.8° (Epoch: 27 February)

Event Time Altitude Azimuth Distance (km) Brightness Sun altitude
Rises 18:55:10 0° 331° (NNW) 3,419 5.5 -4.4°
Reaches altitude 10° 18:57:44 10° 325° (NW) 2,476 4.9 -5.0°
Maximum altitude 19:03:02 42° 256° (WSW) 1,184 3.7 -6.1°
Drops below altitude 10° 19:08:19 10° 186° (S) 2,451 5.0 -7.2°
Sets 19:10:51 0° 179° (S) 3,380 5.6 -7.7°
